Wind_Speed
14 14 14 14 14 14 14 14 14 15 15 15 16 16 16 16 15 15 16 17 17 17 17 17 17 16 16 15 15 14 14 14 14 14 14 15 14 13 13 13 14 14 13 13 13 13 13 13 13 13 13 13
14 14 15 15 15 15 15 15 15 15 16 16 16 16 16 16 16 16 17 18 18 17 18 18 18 17 17 16 16 15 15 14 14 15 15 15 15 14 14 15 15 15 14 14 14 14 13 14 14 14 14 14
15 15 16 16 16 16 16 16 16 16 16 17 17 17 17 17 17 17 18 18 18 18 18 18 18 18 17 17 17 16 16 15 15 15 15 15 15 15 15 16 16 15 15 15 15 15 14 15 14 15 15 15
17 16 17 17 17 18 18 18 17 17 17 18 18 18 18 18 18 18 19 19 19 18 19 19 19 18 18 18 17 17 17 16 16 16 16 16 16 16 16 16 16 16 16 16 16 16 16 16 16 16 16 16
18 18 18 18 18 19 19 19 19 19 19 19 19 19 19 19 20 20 20 20 20 19 19 19 19 19 19 18 18 18 18 18 18 18 18 18 18 18 18 18 18 18 17 17 17 17 17 17 17 17 17 17
18 18 19 19 19 19 20 20 21 21 21 20 21 20 20 20 21 21 21 21 21 21 21 20 20 20 20 19 19 19 19 19 19 19 19 19 19 19 19 19 19 19 19 18 18 18 18 18 18 18 18 18
18 18 19 20 20 19 20 20 21 21 21 22 22 22 21 22 22 22 22 22 22 22 22 22 22 21 21 21 21 21 21 20 20 20 20 20 20 20 20 20 20 20 20 20 19 19 19 19 19 19 18 19
19 18 18 19 20 20 20 20 20 21 21 22 22 22 22 22 23 24 23 23 23 23 23 23 23 23 22 22 22 22 22 22 21 21 21 21 21 21 21 21 21 21 21 21 21 20 20 20 20 20 19 19
19 19 19 19 20 21 20 20 21 21 21 22 22 21 22 23 24 25 25 24 24 24 24 24 24 24 24 23 23 23 23 23 23 22 22 22 22 22 22 22 22 22 22 22 22 22 22 21 21 21 20 20
20 20 20 20 20 21 21 21 21 22 22 22 22 22 22 23 25 26 25 24 24 24 25 25 25 25 25 25 25 25 25 24 24 24 24 23 23 23 23 23 23 23 23 23 23 23 23 23 22 22 21 20
21 21 21 21 21 21 21 21 21 22 23 23 23 23 23 23 24 26 26 25 24 25 26 26 26 26 26 26 27 27 26 26 25 26 25 25 25 24 24 24 24 23 23 24 24 24 24 24 23 23 22 22
22 21 21 21 22 21 21 22 22 22 23 24 24 24 24 24 25 26 27 26 25 26 27 27 26 26 27 27 28 28 28 27 27 27 27 26 26 25 25 25 25 24 24 25 25 25 25 25 25 24 24 23
24 23 22 22 22 22 22 22 23 23 24 25 25 26 26 25 25 27 28 27 26 27 28 27 27 27 28 28 28 29 29 28 27 28 28 27 27 26 26 26 26 25 25 25 25 26 26 26 26 25 25 25
27 26 25 24 24 24 25 24 24 25 26 26 27 27 27 27 27 28 28 28 28 28 29 28 29 28 28 29 29 29 30 29 28 29 29 28 28 28 27 27 27 27 26 26 26 26 26 26 26 26 26 26
30 29 28 27 27 27 27 27 27 28 28 28 29 29 28 28 29 29 29 30 30 29 30 30 30 29 29 30 29 29 31 31 29 30 30 29 29 29 29 29 28 28 28 28 27 27 27 27 27 27 27 27
32 32 31 31 30 30 30 30 29 29 30 30 30 31 30 30 30 30 30 31 31 31 31 31 31 31 30 30 30 29 31 32 30 31 31 30 30 30 30 30 29 29 29 29 28 28 28 28 28 28 28 28
35 35 34 34 34 33 33 33 32 32 32 32 32 32 32 32 31 30 31 32 33 32 32 33 32 32 31 31 30 31 32 32 32 32 32 31 31 32 31 31 31 30 30 29 30 30 30 29 29 29 29 29
38 38 38 37 37 37 36 35 35 34 33 33 34 34 34 34 33 32 32 33 34 34 33 34 34 33 33 32 32 32 33 33 33 33 33 32 33 33 33 32 32 32 31 30 31 31 31 31 31 30 30 30
38 39 39 40 40 39 38 37 37 36 35 35 35 35 35 35 34 33 34 35 35 35 35 35 35 35 35 34 34 34 34 34 34 34 34 33 34 35 34 33 33 33 32 32 32 32 32 31 31 31 30 30
38 38 39 39 40 41 40 39 39 38 37 37 37 37 37 36 35 34 35 36 36 37 36 35 36 36 36 36 36 35 35 35 35 35 35 35 35 36 36 35 35 35 34 34 34 34 33 32 32 31 30 31
36 36 37 38 39 41 41 41 40 40 39 39 39 39 38 38 36 36 37 38 38 38 38 37 37 37 38 38 38 37 37 36 36 37 37 37 37 37 37 36 36 37 36 36 36 36 35 34 34 32 31 31
33 33 33 35 37 40 41 42 42 41 41 40 41 41 41 40 38 37 38 39 40 40 40 39 38 39 39 39 39 39 39 38 38 39 39 39 38 38 38 38 38 38 38 37 38 38 37 36 36 34 32 32
28 29 29 31 34 37 40 42 42 42 42 42 42 42 42 42 41 40 40 40 41 41 42 42 41 41 41 41 41 41 40 40 41 41 41 41 40 39 40 39 40 40 39 39 39 39 39 38 37 35 34 34
21 23 25 26 29 33 36 40 42 42 43 43 44 44 44 44 43 43 42 42 42 43 44 44 43 43 43 43 43 43 42 42 42 42 42 42 41 41 42 41 41 41 40 40 41 41 40 40 39 37 36 36
17 19 21 23 25 28 32 35 39 41 43 44 45 46 46 46 45 45 44 43 44 45 45 46 46 46 46 46 46 45 44 44 44 44 44 44 44 43 43 43 43 42 41 42 43 42 41 41 41 40 39 38
17 17 18 20 22 25 28 31 33 37 41 43 45 46 47 47 47 47 47 47 47 47 47 48 49 49 49 48 48 47 47 46 47 46 46 46 45 45 45 45 45 43 43 43 43 42 43 43 43 42 41 39
17 17 18 19 21 23 26 27 29 32 35 39 42 44 45 46 48 49 50 50 50 50 50 50 50 51 51 50 50 50 49 49 49 48 48 48 47 46 46 47 47 45 44 44 44 44 45 45 44 44 43 40
17 18 18 19 20 22 24 26 28 30 32 34 38 40 42 44 46 47 49 50 51 52 52 52 52 53 53 52 52 52 52 51 51 51 50 50 49 48 48 49 48 47 45 46 45 45 45 46 46 46 42 39
17 18 18 19 20 21 23 25 27 29 32 34 36 39 40 42 44 45 47 48 49 51 52 53 53 54 54 54 54 54 54 53 53 53 52 52 51 51 51 50 49 49 48 47 46 46 46 47 47 46 42 40
17 17 18 19 20 21 22 24 26 27 30 32 34 36 38 40 41 43 45 46 47 48 50 52 53 55 55 55 55 55 55 55 55 55 54 54 54 53 52 52 52 52 49 48 49 48 47 47 48 47 44 44
17 17 17 17 18 19 20 22 24 26 27 29 30 32 33 35 36 38 40 41 43 44 46 48 50 53 55 56 56 57 57 57 57 56 56 56 56 55 54 55 56 54 51 50 51 50 48 48 49 48 46 46
Wind_Direction
263 260 259 258 257 257 256 255 255 253 253 250 249 249 248 248 249 250 252 255 257 258 260 261 261 262 262 262 262 261 262 263 265 268 269 270 272 272 272 272 273 274 274 275 276 277 279 280 282 283 284 285
264 262 260 258 258 257 256 255 254 254 254 254 254 254 253 252 251 251 252 255 257 259 260 260 261 262 264 264 265 265 264 262 263 266 269 273 276 276 276 277 278 278 279 279 278 278 277 278 279 280 281 282
267 263 260 258 258 258 257 256 254 254 253 254 255 255 256 256 255 253 252 255 257 258 260 261 261 263 264 265 267 268 267 266 266 269 271 274 276 277 278 279 281 281 282 282 282 282 281 281 280 281 282 282
269 267 263 259 258 258 258 257 256 254 252 253 254 255 257 258 258 256 256 257 259 259 259 261 263 264 264 266 267 268 269 268 270 272 274 275 276 278 279 280 281 282 282 283 283 284 284 284 284 284 284 284
267 267 266 263 260 259 259 258 258 256 254 253 254 255 256 257 258 259 260 260 261 261 261 261 263 264 264 265 266 267 268 269 270 273 275 277 278 279 280 281 282 282 283 283 283 283 284 284 284 285 285 285
267 265 264 265 263 262 261 260 260 259 258 256 256 256 255 256 257 259 260 260 260 261 262 262 262 263 263 264 264 266 267 269 271 272 275 277 278 280 281 282 282 283 283 284 284 284 284 284 284 284 284 285
267 264 263 263 263 264 264 264 264 263 262 260 260 259 258 258 259 259 259 259 260 260 262 263 263 263 264 264 263 264 266 268 270 272 274 276 278 280 281 282 283 284 284 284 284 284 284 284 284 284 284 284
266 264 261 261 261 262 263 265 266 265 265 264 263 262 262 262 262 262 261 261 261 262 263 263 264 264 265 265 264 264 265 266 268 270 272 275 277 279 280 282 283 284 284 285 285 285 285 284 284 284 284 284
265 264 260 258 259 259 260 261 263 265 265 266 265 264 263 264 264 264 264 263 263 264 264 264 265 265 265 264 263 264 264 265 267 268 270 273 274 276 279 280 282 284 284 285 284 284 284 284 284 284 285 285
264 264 262 259 258 259 259 259 259 262 264 266 267 266 264 263 264 266 267 266 265 265 264 265 266 266 266 265 265 265 265 265 266 267 269 271 272 274 277 278 280 282 283 284 284 285 285 285 285 285 286 286
265 265 264 262 259 259 259 259 260 260 262 264 265 266 265 264 265 267 269 268 266 264 264 265 265 266 266 266 266 267 267 266 266 267 268 269 270 272 274 276 278 280 281 282 284 285 285 286 286 287 287 287
266 265 264 263 262 261 261 261 261 261 261 262 263 264 264 264 264 266 268 269 267 266 265 266 265 265 265 266 267 267 268 268 267 268 268 269 269 270 272 273 275 277 278 280 282 283 284 286 287 287 288 289
264 263 261 261 262 263 262 262 262 262 260 259 260 261 262 262 262 264 267 268 267 265 266 267 266 265 266 266 266 267 268 268 268 269 269 269 270 270 271 272 273 274 275 277 278 280 282 284 285 287 287 288
263 262 260 258 259 261 262 262 261 261 260 258 258 259 260 260 261 262 264 266 265 264 266 266 266 265 265 266 267 267 268 268 267 268 269 270 271 271 272 272 272 273 274 274 275 277 279 281 282 284 285 286
263 262 261 259 258 258 260 260 259 259 259 258 258 258 258 258 259 260 261 263 263 263 264 265 266 265 264 265 267 266 267 268 267 267 269 269 270 271 271 272 272 273 273 274 275 276 277 278 279 281 283 284
260 261 261 261 260 259 259 259 258 257 258 258 258 258 258 257 257 258 259 261 262 263 263 264 264 264 264 264 265 265 265 267 266 266 268 268 269 270 270 271 271 272 273 274 275 276 277 277 278 279 281 283
260 260 260 261 261 260 259 258 258 257 257 257 258 258 257 256 256 256 257 259 261 261 262 263 263 264 264 264 263 263 263 265 265 266 268 268 269 269 270 270 270 271 272 273 274 275 276 277 278 279 280 282
261 261 262 261 261 260 258 258 257 257 257 257 257 257 257 257 256 255 256 257 259 260 260 262 263 264 264 263 262 262 262 264 265 266 267 268 268 269 269 269 270 271 271 271 272 273 274 275 276 278 280 282
261 262 262 261 261 260 258 257 255 255 255 256 256 256 257 257 256 255 255 256 258 259 259 260 261 262 262 263 262 261 262 263 264 266 267 267 267 268 269 270 270 271 270 270 270 271 271 272 274 275 278 280
263 262 261 260 260 260 259 257 255 254 253 254 255 255 256 256 256 255 255 255 257 258 258 258 259 260 261 261 262 261 261 262 263 265 265 265 265 267 269 269 269 270 270 269 269 270 270 271 272 273 275 277
265 263 261 259 259 259 258 257 256 254 253 253 254 255 254 255 254 253 253 254 255 257 257 257 257 258 259 259 260 261 261 261 262 263 264 264 264 266 267 268 268 269 269 269 269 270 270 271 271 271 272 274
266 264 262 260 258 257 258 257 256 255 254 254 255 255 255 254 253 253 253 253 253 254 256 256 256 256 257 257 258 259 260 260 260 261 263 264 264 265 266 267 267 267 268 269 269 269 270 270 271 272 272 272
266 264 262 261 259 257 257 257 257 256 255 255 255 256 256 255 254 253 252 252 252 253 254 254 254 254 255 255 256 257 258 259 259 260 262 264 264 264 265 265 266 266 267 268 269 270 270 271 271 271 271 271
271 267 263 261 260 257 256 256 256 256 255 255 255 255 256 257 257 256 254 253 252 252 253 253 253 254 254 254 255 255 256 257 258 259 260 261 262 262 263 263 264 265 267 268 268 269 269 270 271 271 271 271
281 276 272 267 264 262 260 258 257 257 256 256 256 256 257 258 259 258 256 253 252 251 251 251 252 252 253 253 254 254 255 256 256 257 258 259 259 260 261 262 263 264 265 266 266 268 269 270 271 270 270 270
287 282 278 274 271 269 267 265 263 262 260 259 258 258 259 259 259 258 257 255 253 252 251 250 250 251 252 252 253 253 254 254 255 256 257 258 259 260 261 262 263 263 264 265 266 267 268 268 268 269 269 270
287 280 276 274 273 271 271 270 269 268 266 264 263 263 262 261 260 260 259 257 256 255 253 252 251 251 251 252 253 253 253 253 254 255 256 257 257 258 259 260 261 262 263 264 265 265 266 267 268 268 268 270
289 282 276 272 271 271 272 272 271 270 270 269 268 268 267 266 264 263 262 261 259 257 256 254 253 252 252 252 253 254 253 253 254 255 256 257 257 257 257 258 260 261 262 262 263 264 266 267 267 267 268 270
290 286 282 277 275 274 274 274 273 272 271 270 270 270 270 269 269 268 267 265 263 261 259 257 254 253 253 253 254 255 254 254 254 254 255 257 258 258 258 259 259 259 259 260 261 262 263 265 266 267 269 270
289 287 285 283 281 279 279 279 278 276 274 271 271 272 272 272 272 271 271 270 268 266 263 260 257 255 254 254 254 255 256 256 255 256 256 257 257 258 259 260 260 259 259 260 260 259 260 263 265 267 267 268
286 287 287 287 286 285 285 285 284 282 280 277 275 273 273 274 274 274 273 273 272 271 268 265 261 258 257 256 255 256 257 257 258 258 258 258 258 258 258 259 260 261 261 260 261 261 261 262 263 265 265 266
Height
3159 3160 3160 3161 3161 3162 3162 3163 3164 3164 3165 3166 3166 3166 3167 3167 3168 3168 3169 3169 3169 3170 3170 3170 3170 3171 3171 3172 3172 3173 3173 3173 3174 3174 3174 3174 3174 3174 3175 3175 3175 3175 3175 3175 3176 3176 3176 3176 3176 3176 3177 3177
3158 3158 3159 3159 3159 3160 3160 3161 3162 3162 3163 3164 3165 3165 3166 3166 3167 3167 3168 3168 3168 3169 3169 3169 3169 3169 3170 3170 3170 3171 3171 3172 3172 3173 3173 3173 3173 3173 3173 3173 3173 3173 3174 3174 3174 3174 3174 3174 3175 3175 3175 3176
3157 3157 3158 3158 3158 3158 3159 3159 3160 3160 3161 3162 3163 3163 3164 3165 3165 3166 3167 3167 3167 3168 3168 3168 3168 3168 3169 3169 3169 3170 3170 3170 3171 3171 3171 3171 3171 3171 3171 3171 3171 3172 3172 3172 3172 3173 3173 3173 3173 3173 3174 3174
3156 3156 3156 3157 3157 3157 3157 3158 3158 3158 3159 3160 3160 3161 3162 3162 3163 3164 3165 3165 3166 3167 3167 3167 3167 3167 3168 3168 3168 3168 3169 3169 3169 3169 3169 3169 3169 3170 3170 3170 3170 3170 3170 3170 3170 3171 3171 3171 3171 3171 3172 3172
3155 3155 3155 3155 3155 3156 3156 3156 3156 3157 3157 3158 3158 3159 3160 3160 3161 3162 3163 3163 3164 3165 3165 3166 3166 3166 3166 3167 3167 3167 3167 3168 3168 3168 3168 3168 3168 3168 3168 3168 3168 3168 3168 3168 3168 3168 3169 3169 3169 3169 3170 3170
3153 3153 3153 3154 3154 3154 3154 3155 3155 3155 3156 3156 3157 3157 3158 3158 3159 3160 3160 3161 3162 3162 3163 3163 3164 3164 3165 3165 3165 3166 3166 3166 3167 3167 3167 3167 3167 3167 3167 3167 3166 3166 3166 3166 3166 3166 3166 3167 3167 3167 3167 3168
3152 3152 3152 3152 3152 3153 3153 3153 3154 3154 3154 3155 3155 3156 3156 3157 3157 3158 3158 3159 3160 3160 3160 3161 3161 3162 3163 3163 3164 3164 3164 3165 3165 3165 3165 3166 3166 3165 3165 3165 3165 3165 3165 3165 3165 3165 3165 3165 3165 3165 3165 3166
3150 3150 3151 3150 3151 3151 3151 3152 3152 3152 3153 3153 3154 3154 3155 3155 3155 3156 3156 3157 3158 3158 3158 3159 3159 3160 3161 3161 3162 3162 3162 3163 3163 3163 3164 3164 3164 3164 3164 3164 3163 3163 3163 3163 3163 3163 3163 3163 3163 3163 3163 3164
3148 3149 3149 3149 3149 3149 3150 3150 3150 3151 3151 3151 3152 3153 3153 3153 3153 3153 3154 3155 3156 3156 3157 3157 3158 3158 3159 3159 3160 3160 3161 3161 3161 3161 3162 3162 3162 3162 3162 3162 3162 3162 3162 3162 3161 3161 3161 3161 3161 3161 3161 3162
3146 3147 3147 3148 3148 3148 3148 3148 3149 3149 3149 3150 3150 3151 3151 3151 3151 3151 3152 3153 3154 3155 3155 3156 3156 3157 3157 3158 3158 3158 3159 3159 3159 3159 3160 3160 3160 3160 3160 3160 3160 3160 3160 3160 3160 3160 3160 3159 3159 3159 3159 3159
3145 3145 3145 3146 3146 3146 3146 3147 3147 3147 3147 3148 3148 3149 3149 3150 3150 3150 3150 3151 3152 3153 3153 3154 3154 3154 3155 3155 3156 3156 3156 3157 3157 3157 3158 3158 3158 3158 3158 3158 3158 3158 3158 3158 3158 3158 3158 3158 3158 3158 3157 3157
3143 3143 3143 3144 3144 3144 3145 3145 3145 3146 3146 3146 3146 3146 3147 3148 3148 3148 3148 3149 3150 3150 3151 3151 3152 3152 3152 3153 3153 3154 3154 3155 3155 3155 3156 3156 3156 3156 3156 3156 3157 3157 3157 3157 3157 3156 3156 3156 3156 3156 3156 3156
3140 3141 3141 3141 3142 3142 3143 3143 3143 3144 3144 3144 3144 3144 3145 3145 3146 3146 3146 3147 3148 3148 3148 3149 3149 3150 3150 3150 3151 3151 3151 3152 3153 3153 3153 3153 3154 3154 3154 3155 3155 3155 3155 3155 3155 3155 3155 3155 3154 3154 3154 3154
3137 3138 3138 3139 3140 3140 3140 3141 3141 3141 3141 3142 3142 3142 3142 3143 3143 3144 3144 3144 3145 3146 3146 3146 3147 3148 3148 3148 3149 3149 3149 3150 3151 3150 3150 3151 3151 3152 3152 3152 3153 3153 3153 3153 3153 3153 3153 3153 3153 3152 3152 3152
3134 3135 3135 3136 3137 3137 3137 3138 3138 3138 3138 3139 3139 3140 3140 3140 3140 3141 3141 3142 3142 3143 3143 3144 3144 3145 3146 3146 3147 3147 3147 3147 3148 3148 3148 3149 3149 3149 3150 3150 3150 3150 3151 3151 3151 3151 3151 3151 3151 3150 3150 3150
3131 3132 3132 3133 3134 3134 3135 3135 3135 3135 3135 3136 3137 3137 3137 3138 3138 3138 3139 3139 3140 3141 3141 3141 3141 3142 3143 3144 3144 3145 3145 3145 3145 3145 3146 3146 3146 3146 3147 3147 3148 3148 3148 3148 3148 3148 3148 3148 3148 3148 3148 3148
3128 3129 3129 3130 3130 3131 3131 3132 3132 3133 3133 3133 3134 3134 3134 3135 3135 3136 3136 3136 3137 3138 3138 3138 3139 3139 3140 3141 3142 3142 3142 3142 3142 3143 3143 3144 3144 3144 3144 3145 3145 3145 3145 3146 3146 3146 3146 3146 3146 3146 3146 3145
3125 3125 3126 3126 3126 3127 3127 3128 3129 3130 3130 3130 3130 3131 3131 3132 3132 3133 3133 3133 3133 3134 3135 3136 3136 3137 3137 3138 3139 3139 3139 3139 3140 3140 3141 3141 3141 3141 3141 3142 3142 3142 3143 3143 3143 3143 3143 3143 3143 3143 3143 3143
3121 3122 3122 3122 3122 3123 3123 3124 3125 3126 3127 3127 3127 3128 3128 3128 3130 3130 3130 3130 3130 3131 3132 3133 3133 3133 3134 3134 3135 3136 3136 3137 3136 3137 3138 3138 3138 3138 3138 3139 3139 3139 3140 3140 3140 3140 3140 3140 3140 3140 3141 3141
3117 3118 3118 3118 3119 3119 3120 3120 3121 3122 3123 3123 3124 3124 3125 3126 3127 3127 3127 3126 3127 3127 3128 3129 3130 3130 3131 3131 3132 3132 3133 3133 3133 3133 3134 3134 3134 3134 3135 3136 3136 3136 3137 3137 3137 3137 3137 3137 3137 3137 3138 3138
3113 3114 3114 3115 3115 3115 3116 3116 3117 3118 3119 3119 3120 3120 3121 3122 3123 3124 3123 3123 3124 3124 3124 3125 3126 3126 3127 3127 3128 3129 3129 3130 3130 3130 3130 3130 3131 3131 3132 3133 3133 3133 3133 3134 3134 3134 3134 3134 3134 3134 3135 3134
3109 3109 3110 3111 3111 3112 3112 3112 3113 3114 3114 3115 3115 3116 3117 3118 3119 3120 3120 3120 3120 3121 3121 3121 3122 3122 3123 3123 3124 3124 3125 3126 3126 3126 3126 3127 3127 3128 3128 3129 3129 3129 3130 3130 3130 3130 3130 3130 3130 3131 3131 3131
3106 3106 3106 3107 3108 3108 3108 3108 3109 3110 3110 3111 3111 3112 3112 3114 3115 3116 3116 3116 3116 3117 3117 3117 3118 3118 3119 3119 3119 3120 3121 3121 3121 3122 3122 3123 3124 3124 3124 3125 3125 3125 3126 3127 3126 3127 3127 3127 3127 3128 3128 3128
3103 3103 3103 3103 3104 3104 3104 3105 3105 3106 3106 3106 3107 3107 3108 3109 3111 3112 3112 3113 3113 3113 3113 3113 3114 3114 3114 3115 3115 3115 3116 3117 3117 3118 3118 3119 3119 3120 3119 3120 3120 3121 3123 3123 3122 3123 3123 3123 3123 3124 3124 3124
3102 3101 3101 3101 3101 3101 3101 3101 3102 3102 3102 3102 3102 3103 3103 3105 3107 3107 3108 3108 3108 3108 3108 3109 3109 3109 3110 3111 3111 3111 3112 3112 3112 3113 3113 3114 3114 3115 3115 3115 3116 3117 3119 3118 3118 3119 3119 3119 3119 3120 3120 3120
3100 3100 3099 3099 3099 3099 3098 3099 3099 3099 3099 3099 3098 3098 3099 3101 3102 3102 3103 3103 3103 3103 3103 3103 3104 3104 3105 3106 3107 3107 3108 3108 3108 3108 3109 3109 3110 3111 3111 3111 3112 3113 3114 3114 3114 3116 3115 3114 3115 3115 3116 3117
3098 3098 3097 3097 3096 3096 3096 3096 3097 3096 3096 3096 3095 3094 3095 3096 3096 3097 3097 3098 3098 3099 3099 3099 3099 3099 3100 3101 3102 3102 3103 3104 3104 3104 3104 3104 3105 3106 3106 3106 3106 3108 3110 3110 3110 3111 3110 3110 3111 3110 3111 3114
3097 3096 3095 3094 3094 3094 3093 3094 3094 3093 3093 3093 3092 3091 3091 3091 3091 3091 3092 3092 3093 3093 3094 3095 3095 3095 3095 3096 3097 3097 3098 3098 3099 3100 3100 3100 3101 3101 3100 3100 3101 3103 3105 3105 3106 3107 3106 3106 3105 3105 3108 3111
3094 3094 3093 3092 3091 3091 3091 3091 3091 3090 3090 3089 3088 3088 3088 3088 3087 3087 3087 3087 3088 3088 3089 3089 3090 3090 3091 3092 3093 3093 3093 3093 3094 3095 3095 3096 3097 3096 3096 3097 3097 3098 3099 3100 3101 3102 3101 3101 3100 3101 3105 3106
3092 3091 3091 3090 3089 3088 3088 3087 3087 3087 3086 3085 3085 3084 3083 3083 3083 3083 3083 3083 3083 3084 3084 3084 3084 3085 3085 3087 3088 3088 3088 3089 3089 3090 3091 3091 3091 3092 3093 3093 3091 3092 3095 3095 3095 3096 3097 3097 3096 3098 3100 3100
3089 3088 3088 3087 3086 3085 3085 3084 3084 3084 3083 3082 3081 3080 3079 3079 3079 3079 3078 3078 3078 3078 3079 3079 3079 3080 3080 3081 3083 3083 3084 3084 3085 3085 3086 3086 3086 3087 3088 3087 3085 3087 3091 3091 3089 3090 3093 3093 3092 3093 3095 3095